Hourly Weather Aarau

Today, 16 January, Saturday

Time Temperature Precipitation Wind Pressure Humidity
00:00 -6°C° 0 mm 0 mps 732 mmHg 96%
01:00 -4°C° 0 mm 1 mps 732 mmHg 94%
02:00 -6°C° 0 mm 1 mps 732 mmHg 94%
03:00 -6°C° 0 mm 0 mps 732 mmHg 94%
04:00 -7°C° 0 mm 0 mps 732 mmHg 94%
05:00 -7°C° 0 mm 0 mps 732 mmHg 94%
06:00 -8°C° 0 mm 0 mps 732 mmHg 94%
07:00 -8°C° 0 mm 0 mps 732 mmHg 94%
08:00 -7°C° 0 mm 0 mps 732 mmHg 93%
09:00 -6°C° 0 mm 0 mps 732 mmHg 91%
10:00 -5°C° 0 mm 0 mps 732 mmHg 90%
11:00 -3°C° 0 mm 0 mps 731 mmHg 87%
12:00 -2°C° 0 mm 0 mps 731 mmHg 84%
13:00 -1°C° 0 mm 0 mps 731 mmHg 81%
14:00 -2°C° 0 mm 0 mps 730 mmHg 83%
15:00 -2°C° 0 mm 0 mps 730 mmHg 85%
16:00 -2°C° 0 mm 0 mps 730 mmHg 86%
17:00 -3°C° 0 mm 0 mps 730 mmHg 87%
18:00 -3°C° 0 mm 0 mps 729 mmHg 88%
19:00 -3°C° 0 mm 1 mps 729 mmHg 89%
20:00 -2°C° 0 mm 1 mps 729 mmHg 89%
21:00 -2°C° 0 mm 1 mps 729 mmHg 90%
22:00 -2°C° 0 mm 1 mps 728 mmHg 91%
23:00 -1°C° 0.3 mm 1 mps 728 mmHg 92%

Tomorrow, 17 January, Sunday

Time Temperature Precipitation Wind Pressure Humidity
00:00 -1°C° 0.3 mm 1 mps 727 mmHg 93%
01:00 0°C° 0.3 mm 1 mps 727 mmHg 95%
02:00 0°C° 0.5 mm 1 mps 726 mmHg 96%
03:00 0°C° 0.5 mm 1 mps 725 mmHg 96%
04:00 +1°C° 0.5 mm 1 mps 725 mmHg 97%
05:00 -1°C° 0.4 mm 2 mps 725 mmHg 98%
06:00 +1°C° 0.4 mm 2 mps 725 mmHg 98%
07:00 +1°C° 0.4 mm 3 mps 725 mmHg 98%
08:00 +1°C° 0.4 mm 3 mps 725 mmHg 98%
09:00 +1°C° 0.4 mm 3 mps 725 mmHg 98%
10:00 +1°C° 0.4 mm 3 mps 725 mmHg 98%
11:00 +1°C° 0.6 mm 3 mps 725 mmHg 98%
12:00 +1°C° 0.6 mm 3 mps 726 mmHg 98%
13:00 +1°C° 0.6 mm 3 mps 726 mmHg 99%
14:00 +2°C° 0.6 mm 2 mps 726 mmHg 99%
15:00 +2°C° 0.6 mm 2 mps 727 mmHg 99%
16:00 +2°C° 0.6 mm 2 mps 727 mmHg 99%
17:00 +2°C° 0.2 mm 2 mps 728 mmHg 99%
18:00 +1°C° 0.2 mm 2 mps 729 mmHg 99%
19:00 +1°C° 0.2 mm 2 mps 729 mmHg 99%
20:00 +1°C° 0.1 mm 2 mps 730 mmHg 98%
21:00 +1°C° 0.1 mm 2 mps 730 mmHg 98%
22:00 +1°C° 0.1 mm 2 mps 731 mmHg 98%
23:00 -1°C° 0 mm 2 mps 731 mmHg 97%

Day after tomorrow, 18 January, Monday

Time Temperature Precipitation Wind Pressure Humidity
00:00 0°C° 0 mm 1 mps 732 mmHg 97%
01:00 0°C° 0 mm 1 mps 732 mmHg 96%
02:00 0°C° 0.1 mm 1 mps 732 mmHg 96%
03:00 0°C° 0.1 mm 1 mps 732 mmHg 96%
04:00 0°C° 0.1 mm 1 mps 732 mmHg 96%
05:00 -1°C° 0.1 mm 1 mps 732 mmHg 96%
06:00 -1°C° 0.1 mm 1 mps 733 mmHg 96%
07:00 -1°C° 0.1 mm 1 mps 733 mmHg 96%
08:00 -1°C° 0 mm 1 mps 733 mmHg 95%
09:00 0°C° 0 mm 1 mps 733 mmHg 94%
10:00 0°C° 0 mm 1 mps 733 mmHg 93%
11:00 +1°C° 0 mm 1 mps 733 mmHg 92%
12:00 +2°C° 0 mm 1 mps 733 mmHg 91%
13:00 +3°C° 0 mm 1 mps 732 mmHg 89%
14:00 +3°C° 0 mm 1 mps 732 mmHg 91%
15:00 +2°C° 0 mm 1 mps 732 mmHg 92%
16:00 +1°C° 0 mm 0 mps 732 mmHg 93%
17:00 0°C° 0 mm 0 mps 732 mmHg 94%
18:00 -1°C° 0 mm 0 mps 732 mmHg 94%
19:00 -2°C° 0 mm 0 mps 732 mmHg 94%
20:00 -2°C° 0 mm 0 mps 732 mmHg 94%
21:00 -1°C° 0 mm 1 mps 732 mmHg 93%
22:00 -2°C° 0 mm 1 mps 731 mmHg 93%
23:00 -2°C° 0 mm 1 mps 731 mmHg 92%

19 January, Tuesday

Time Temperature Precipitation Wind Pressure Humidity
00:00 -2°C° 0 mm 1 mps 731 mmHg 92%
01:00 -2°C° 0 mm 1 mps 730 mmHg 91%
02:00 -2°C° 0 mm 1 mps 730 mmHg 91%
03:00 -2°C° 0 mm 1 mps 729 mmHg 90%
04:00 -2°C° 0 mm 1 mps 729 mmHg 89%
05:00 -2°C° 0 mm 1 mps 728 mmHg 88%
06:00 -2°C° 0 mm 1 mps 728 mmHg 87%
07:00 -2°C° 0 mm 1 mps 728 mmHg 86%
08:00 -1°C° 0 mm 1 mps 728 mmHg 85%
09:00 0°C° 0 mm 1 mps 727 mmHg 84%
10:00 +1°C° 0 mm 1 mps 727 mmHg 83%
11:00 +2°C° 0 mm 1 mps 727 mmHg 84%
12:00 +4°C° 0 mm 1 mps 726 mmHg 85%
13:00 +5°C° 0 mm 1 mps 726 mmHg 86%
14:00 +4°C° 0 mm 1 mps 725 mmHg 86%
15:00 +4°C° 0 mm 1 mps 725 mmHg 86%
16:00 +4°C° 0 mm 1 mps 724 mmHg 86%
17:00 +3°C° 0 mm 1 mps 725 mmHg 85%
18:00 +2°C° 0 mm 1 mps 725 mmHg 85%
19:00 +1°C° 0 mm 1 mps 725 mmHg 84%
20:00 +1°C° 0 mm 1 mps 725 mmHg 84%
21:00 +1°C° 0 mm 1 mps 725 mmHg 84%
22:00 0°C° 0 mm 1 mps 724 mmHg 84%
23:00 0°C° 0 mm 1 mps 724 mmHg 84%

20 January, Wednesday

Time Temperature Precipitation Wind Pressure Humidity
00:00 0°C° 0 mm 1 mps 724 mmHg 84%
01:00 0°C° 0 mm 1 mps 724 mmHg 85%
02:00 0°C° 0 mm 1 mps 723 mmHg 84%
03:00 0°C° 0 mm 1 mps 723 mmHg 84%
04:00 0°C° 0 mm 1 mps 723 mmHg 84%
05:00 0°C° 0 mm 1 mps 722 mmHg 84%
06:00 0°C° 0 mm 1 mps 722 mmHg 83%
07:00 +1°C° 0 mm 1 mps 722 mmHg 83%
08:00 +1°C° 0 mm 1 mps 721 mmHg 83%
09:00 +2°C° 0 mm 1 mps 721 mmHg 82%
10:00 +2°C° 0 mm 1 mps 720 mmHg 82%
11:00 +3°C° 0 mm 1 mps 720 mmHg 84%
12:00 +4°C° 0 mm 1 mps 719 mmHg 85%
13:00 +5°C° 0 mm 1 mps 719 mmHg 87%
14:00 +4°C° 0 mm 1 mps 718 mmHg 88%
15:00 +4°C° 0 mm 1 mps 718 mmHg 88%
16:00 +4°C° 0 mm 1 mps 717 mmHg 89%
17:00 +3°C° 0 mm 1 mps 717 mmHg 88%
18:00 +2°C° 0 mm 1 mps 717 mmHg 88%
19:00 +1°C° 0 mm 1 mps 717 mmHg 87%
20:00 +1°C° 0 mm 1 mps 717 mmHg 88%
21:00 +1°C° 0 mm 1 mps 716 mmHg 88%
22:00 +1°C° 0 mm 1 mps 716 mmHg 88%
23:00 +1°C° 0 mm 1 mps 716 mmHg 88%

21 January, Thursday

Time Temperature Precipitation Wind Pressure Humidity
00:00 +1°C° 0 mm 1 mps 716 mmHg 87%
01:00 +2°C° 0 mm 1 mps 715 mmHg 87%
02:00 +2°C° 0 mm 1 mps 715 mmHg 87%
03:00 +2°C° 0 mm 1 mps 714 mmHg 88%
04:00 +2°C° 0 mm 1 mps 714 mmHg 88%
05:00 +2°C° 0 mm 1 mps 714 mmHg 88%
06:00 +2°C° 0 mm 1 mps 714 mmHg 89%
07:00 +2°C° 0 mm 1 mps 714 mmHg 89%
08:00 +1°C° 1.1 mm 2 mps 715 mmHg 92%
09:00 +2°C° 1.1 mm 2 mps 716 mmHg 95%
10:00 +1°C° 1.1 mm 3 mps 717 mmHg 97%
11:00 +2°C° 0.6 mm 3 mps 717 mmHg 97%
12:00 +3°C° 0.6 mm 2 mps 717 mmHg 97%
13:00 +4°C° 0.6 mm 2 mps 717 mmHg 96%
14:00 +4°C° 0 mm 2 mps 717 mmHg 95%
15:00 +4°C° 0 mm 2 mps 716 mmHg 94%
16:00 +4°C° 0 mm 2 mps 716 mmHg 92%
17:00 +3°C° 0 mm 2 mps 716 mmHg 91%
18:00 +2°C° 0 mm 2 mps 716 mmHg 90%
19:00 +1°C° 0 mm 2 mps 716 mmHg 89%
20:00 +1°C° 0 mm 2 mps 716 mmHg 89%
21:00 +2°C° 0 mm 1 mps 716 mmHg 89%
22:00 +2°C° 0 mm 1 mps 716 mmHg 89%
23:00 +2°C° 0 mm 1 mps 715 mmHg 89%
Show more